GFSNIL_prec_precacc_273.txt.gz
Total_Precipitation_Accumulation
0.95 1.24 1.03 1.00 1.37 1.96 1.32 1.02 1.41 1.43 1.36 1.23 1.14 0.82 0.88 0.73 0.54 0.61 0.70 0.63 0.74 1.30
0.89 1.29 1.35 2.00 1.62 1.64 1.96 1.52 1.92 1.72 1.56 1.69 1.68 1.46 1.43 0.94 0.82 1.12 0.78 0.69 0.70 1.14
1.15 1.14 1.10 1.51 1.14 1.47 1.77 1.95 4.44 3.12 1.74 1.66 1.70 1.58 1.82 1.26 1.05 1.11 0.93 0.75 0.80 1.03
0.97 0.96 0.75 0.55 0.61 0.63 0.90 1.39 1.89 3.25 1.57 1.53 1.63 1.46 2.11 1.86 1.61 1.74 1.29 1.05 1.04 0.89
1.36 1.44 0.72 0.40 0.27 0.24 0.48 0.87 0.99 1.31 1.48 1.62 1.33 1.49 2.29 2.14 1.83 2.23 1.88 1.48 1.46 1.33
1.50 1.19 1.45 0.77 0.22 0.24 0.38 0.45 0.55 0.94 1.38 1.37 1.15 1.60 1.85 2.46 2.41 2.21 2.38 1.90 1.80 1.68
1.37 1.06 1.28 1.12 0.55 0.26 0.34 0.34 0.31 0.51 0.85 0.97 1.05 1.02 1.25 1.60 1.63 1.82 1.88 2.50 2.36 1.79
1.89 1.35 1.32 1.88 1.88 1.05 0.85 0.75 0.50 0.54 0.76 1.04 1.04 0.85 1.25 1.36 1.37 1.47 1.43 1.79 2.13 2.12
2.32 2.65 2.49 2.43 3.05 2.49 1.98 1.98 1.60 1.02 1.07 1.11 0.66 1.10 1.39 1.05 1.27 1.36 1.33 1.40 1.49 1.77
2.78 2.89 2.45 2.45 2.97 2.97 3.35 3.39 2.53 2.07 2.16 1.93 1.61 1.40 1.51 1.60 1.11 1.25 1.23 1.22 1.24 1.22
3.16 3.52 3.41 2.80 2.60 3.19 3.54 3.26 2.95 2.59 2.49 2.56 2.17 2.10 1.99 2.41 1.46 0.86 0.94 1.11 1.04 1.07
2.78 3.59 3.98 3.77 3.41 3.39 3.73 3.48 3.10 3.10 3.17 2.79 2.04 2.98 2.92 3.13 2.10 1.46 1.45 1.47 1.16 1.03
2.41 2.24 2.40 2.98 3.39 3.38 3.53 3.55 3.23 2.65 2.33 2.43 2.07 3.03 3.02 2.95 2.21 1.46 1.34 1.42 1.28 1.25
3.10 3.24 3.26 2.78 3.25 3.68 3.95 3.62 3.23 2.75 3.27 3.31 3.19 3.08 3.23 3.19 2.87 2.36 1.88 1.38 1.39 1.40

GFSNIL_prec_precacc_276.txt.gz
Total_Precipitation_Accumulation
0.96 1.26 1.09 1.07 1.48 2.05 1.34 1.02 1.41 1.43 1.36 1.23 1.14 0.82 0.91 0.78 0.56 0.72 0.75 0.67 0.83 1.45
0.90 1.32 1.39 2.08 1.73 1.76 2.05 1.53 1.92 1.72 1.56 1.69 1.68 1.47 1.48 0.99 0.83 1.15 0.85 0.80 0.89 1.31
1.15 1.15 1.15 1.64 1.20 1.54 1.79 1.95 4.45 3.12 1.74 1.66 1.70 1.61 1.88 1.29 1.15 1.27 1.03 0.78 0.83 1.04
0.97 0.96 0.76 0.60 0.66 0.65 0.92 1.42 1.91 3.26 1.58 1.54 1.63 1.50 2.16 1.88 1.76 1.87 1.37 1.13 1.10 1.08
1.37 1.45 0.72 0.41 0.28 0.24 0.49 0.88 1.01 1.34 1.49 1.64 1.34 1.53 2.32 2.15 1.87 2.28 1.95 1.56 1.59 1.51
1.50 1.19 1.45 0.78 0.22 0.24 0.38 0.45 0.56 0.96 1.41 1.40 1.18 1.63 1.88 2.51 2.50 2.31 2.47 1.97 1.88 1.79
1.37 1.06 1.28 1.12 0.56 0.26 0.35 0.35 0.33 0.54 0.88 1.00 1.06 1.04 1.28 1.65 1.69 1.86 1.90 2.54 2.46 1.93
1.89 1.35 1.32 1.88 1.89 1.06 0.85 0.75 0.52 0.55 0.78 1.07 1.07 0.87 1.27 1.38 1.38 1.47 1.43 1.81 2.20 2.16
2.32 2.65 2.49 2.43 3.05 2.50 1.98 1.98 1.60 1.04 1.10 1.16 0.67 1.10 1.39 1.06 1.28 1.36 1.33 1.40 1.49 1.78
2.78 2.89 2.45 2.45 2.97 2.97 3.35 3.39 2.53 2.08 2.18 1.95 1.61 1.40 1.51 1.60 1.11 1.25 1.24 1.22 1.24 1.22
3.16 3.52 3.41 2.80 2.60 3.20 3.58 3.32 3.04 2.63 2.52 2.56 2.17 2.10 1.99 2.41 1.46 0.89 0.96 1.12 1.05 1.07
2.78 3.59 3.98 3.77 3.41 3.40 3.76 3.51 3.15 3.15 3.23 2.82 2.04 2.98 2.92 3.13 2.10 1.52 1.51 1.50 1.16 1.03
2.41 2.24 2.40 2.98 3.39 3.41 3.57 3.58 3.30 2.75 2.41 2.44 2.07 3.03 3.02 2.95 2.21 1.46 1.38 1.47 1.30 1.25
3.10 3.24 3.27 2.79 3.26 3.71 3.98 3.72 3.33 2.82 3.32 3.32 3.19 3.08 3.23 3.19 2.87 2.36 1.88 1.40 1.40 1.40

GFSNIL_prec_precacc_279.txt.gz
Total_Precipitation_Accumulation
0.96 1.27 1.10 1.23 1.60 2.08 1.37 1.18 1.51 1.53 1.38 1.23 1.14 0.82 0.91 0.78 0.57 0.73 0.76 0.76 0.88 1.56
0.91 1.33 1.41 2.12 1.80 1.80 2.14 1.56 2.24 1.96 1.66 1.69 1.68 1.47 1.48 0.99 0.84 1.16 0.88 0.86 1.08 1.43
1.15 1.17 1.23 1.71 1.24 1.60 1.88 1.99 4.75 3.16 1.75 1.66 1.70 1.61 1.88 1.29 1.16 1.28 1.06 0.80 0.87 1.18
0.98 0.97 0.80 0.61 0.66 0.67 0.95 1.43 1.94 3.27 1.58 1.54 1.63 1.50 2.16 1.88 1.81 1.93 1.39 1.17 1.11 1.29
1.37 1.45 0.73 0.42 0.28 0.24 0.49 0.88 1.01 1.34 1.49 1.64 1.34 1.53 2.32 2.15 1.93 2.32 1.99 1.67 1.72 1.57
1.50 1.19 1.45 0.78 0.23 0.24 0.38 0.45 0.56 0.96 1.41 1.40 1.18 1.63 1.88 2.52 2.53 2.33 2.51 1.98 1.90 1.86
1.37 1.06 1.28 1.12 0.56 0.26 0.35 0.35 0.33 0.54 0.88 1.00 1.06 1.04 1.28 1.65 1.69 1.86 1.90 2.55 2.48 1.96
1.89 1.35 1.32 1.88 1.89 1.06 0.85 0.75 0.52 0.55 0.78 1.07 1.07 0.87 1.27 1.38 1.38 1.47 1.43 1.81 2.21 2.22
2.32 2.65 2.49 2.43 3.05 2.50 1.98 1.98 1.60 1.04 1.10 1.16 0.67 1.10 1.39 1.06 1.28 1.36 1.33 1.40 1.49 1.79
2.78 2.89 2.45 2.45 2.97 2.97 3.35 3.39 2.54 2.08 2.18 1.95 1.61 1.40 1.51 1.60 1.11 1.25 1.24 1.22 1.24 1.22
3.16 3.52 3.41 2.80 2.60 3.20 3.58 3.32 3.04 2.63 2.52 2.57 2.17 2.10 1.99 2.41 1.46 0.89 0.96 1.12 1.05 1.07
2.78 3.59 3.98 3.77 3.41 3.40 3.76 3.51 3.15 3.15 3.23 2.82 2.04 2.98 2.92 3.13 2.10 1.52 1.51 1.50 1.16 1.03
2.41 2.24 2.40 2.98 3.39 3.41 3.59 3.63 3.39 2.82 2.50 2.51 2.07 3.05 3.03 2.95 2.21 1.46 1.38 1.47 1.30 1.25
3.10 3.24 3.27 2.80 3.27 3.81 4.23 3.99 3.64 3.17 3.71 3.61 3.32 3.17 3.25 3.19 2.87 2.36 1.88 1.40 1.40 1.40

GFSNIL_prec_precacc_285.txt.gz
Total_Precipitation_Accumulation
1.02 1.34 1.14 1.31 1.75 2.08 1.39 1.23 1.57 1.58 1.45 1.38 1.42 1.07 1.03 0.83 0.61 0.77 0.78 0.78 0.89 1.56
0.94 1.38 1.51 2.19 1.90 1.81 2.16 1.61 2.45 2.27 1.87 2.06 2.01 1.71 1.66 1.06 0.88 1.21 0.92 0.87 1.13 1.47
1.16 1.18 1.30 1.77 1.31 1.65 1.96 2.03 4.97 3.88 1.96 1.82 1.98 1.75 2.05 1.33 1.19 1.29 1.10 0.82 0.90 1.24
0.99 0.97 0.81 0.62 0.67 0.70 0.96 1.44 2.26 3.75 1.81 1.60 1.67 1.51 2.17 1.88 1.82 1.93 1.40 1.21 1.13 1.29
1.37 1.45 0.73 0.42 0.28 0.24 0.49 0.88 1.04 1.38 1.51 1.65 1.36 1.53 2.32 2.15 1.94 2.33 1.99 1.72 1.74 1.62
1.50 1.19 1.45 0.78 0.23 0.24 0.38 0.45 0.56 0.96 1.41 1.40 1.18 1.63 1.88 2.52 2.53 2.33 2.51 1.99 1.93 1.98
1.37 1.06 1.28 1.12 0.56 0.26 0.35 0.35 0.33 0.54 0.88 1.00 1.06 1.04 1.28 1.65 1.69 1.86 1.90 2.55 2.48 1.97
1.89 1.35 1.32 1.88 1.89 1.06 0.85 0.75 0.52 0.55 0.78 1.07 1.07 0.87 1.27 1.38 1.38 1.47 1.43 1.81 2.21 2.22
2.32 2.65 2.49 2.43 3.05 2.50 1.98 1.98 1.60 1.04 1.10 1.16 0.67 1.10 1.39 1.06 1.28 1.36 1.33 1.40 1.49 1.79
2.78 2.89 2.45 2.45 2.97 2.97 3.35 3.39 2.54 2.08 2.18 1.95 1.61 1.40 1.51 1.60 1.11 1.25 1.24 1.22 1.24 1.22
3.16 3.52 3.41 2.80 2.60 3.20 3.58 3.32 3.04 2.63 2.52 2.57 2.17 2.10 1.99 2.41 1.46 0.92 0.98 1.14 1.06 1.07
2.78 3.59 3.98 3.77 3.41 3.40 3.77 3.51 3.16 3.18 3.25 2.88 2.13 3.07 2.98 3.14 2.10 1.52 1.54 1.52 1.18 1.03
2.41 2.24 2.40 2.98 3.39 3.41 3.59 3.64 3.44 2.89 2.66 2.77 2.29 3.28 3.18 3.03 2.22 1.46 1.39 1.48 1.30 1.26
3.10 3.24 3.27 2.80 3.27 3.82 4.27 4.04 3.69 3.23 3.83 3.79 3.54 3.40 3.50 3.38 2.94 2.39 1.89 1.41 1.40 1.40

GFSNIL_prec_precacc_291.txt.gz
Total_Precipitation_Accumulation
1.04 1.36 1.18 1.35 1.76 2.08 1.39 1.23 1.58 1.59 1.48 1.49 1.52 1.25 1.36 1.14 0.85 1.15 1.03 0.85 0.95 1.62
0.99 1.41 1.56 2.25 1.94 1.86 2.17 1.64 2.54 2.41 1.95 2.34 2.43 2.10 2.19 1.86 1.79 2.14 1.65 1.06 1.21 1.51
1.23 1.27 1.41 1.85 1.42 1.72 2.04 2.08 5.05 4.17 2.42 2.15 2.22 1.96 2.24 1.60 1.60 1.56 1.16 0.85 0.92 1.24
1.03 1.03 0.86 0.64 0.68 0.72 0.99 1.48 2.38 4.23 2.04 1.66 1.69 1.53 2.20 1.98 1.90 1.97 1.41 1.22 1.14 1.30
1.39 1.49 0.76 0.44 0.30 0.26 0.50 0.90 1.15 1.60 1.55 1.65 1.38 1.54 2.33 2.18 1.97 2.40 2.04 1.73 1.75 1.63
1.50 1.19 1.45 0.78 0.24 0.25 0.40 0.47 0.62 1.01 1.45 1.40 1.18 1.63 1.88 2.52 2.54 2.34 2.51 1.99 1.94 1.99
1.37 1.06 1.28 1.12 0.56 0.26 0.35 0.35 0.33 0.54 0.88 1.00 1.06 1.04 1.28 1.65 1.69 1.86 1.90 2.55 2.49 1.98
1.89 1.35 1.32 1.88 1.89 1.06 0.85 0.75 0.52 0.55 0.78 1.07 1.07 0.87 1.27 1.38 1.38 1.47 1.43 1.81 2.22 2.22
2.32 2.65 2.49 2.43 3.05 2.50 1.98 1.98 1.60 1.04 1.10 1.16 0.67 1.10 1.39 1.06 1.28 1.36 1.33 1.40 1.49 1.79
2.78 2.89 2.45 2.45 2.97 2.97 3.35 3.39 2.54 2.08 2.18 1.95 1.61 1.40 1.51 1.60 1.11 1.25 1.24 1.22 1.24 1.22
3.16 3.52 3.41 2.80 2.60 3.20 3.58 3.32 3.04 2.63 2.52 2.57 2.17 2.10 1.99 2.41 1.46 0.92 0.98 1.14 1.06 1.07
2.78 3.59 3.98 3.77 3.41 3.40 3.77 3.51 3.16 3.18 3.25 2.88 2.13 3.07 2.98 3.14 2.10 1.52 1.54 1.52 1.18 1.03
2.41 2.24 2.40 2.98 3.39 3.41 3.59 3.64 3.44 2.89 2.66 2.77 2.29 3.28 3.18 3.03 2.24 1.49 1.49 1.60 1.37 1.34
3.10 3.24 3.27 2.80 3.27 3.82 4.27 4.04 3.69 3.24 3.84 3.80 3.54 3.42 3.51 3.43 3.03 2.50 2.22 1.57 1.53 1.54